Hourly Weather Karachi

Today, 3 July, Friday

Time Temperature Precipitation Wind Pressure Humidity
00:00 +34°C° 0 mm 5 mps 748 mmHg 73%
01:00 +33°C° 0 mm 5 mps 748 mmHg 75%
02:00 +33°C° 0 mm 5 mps 748 mmHg 75%
03:00 +33°C° 0 mm 5 mps 747 mmHg 76%
04:00 +33°C° 0 mm 5 mps 747 mmHg 76%
05:00 +34°C° 0 mm 5 mps 747 mmHg 73%
06:00 +34°C° 0 mm 5 mps 747 mmHg 70%
07:00 +35°C° 0 mm 5 mps 748 mmHg 67%
08:00 +36°C° 0 mm 5 mps 748 mmHg 62%
09:00 +38°C° 0 mm 6 mps 747 mmHg 57%
10:00 +39°C° 0 mm 6 mps 747 mmHg 51%
11:00 +40°C° 0 mm 6 mps 747 mmHg 51%
12:00 +40°C° 0 mm 7 mps 746 mmHg 50%
13:00 +40°C° 0 mm 7 mps 746 mmHg 50%
14:00 +40°C° 0 mm 7 mps 746 mmHg 52%
15:00 +39°C° 0 mm 7 mps 745 mmHg 55%
16:00 +38°C° 0 mm 7 mps 745 mmHg 57%
17:00 +36°C° 0 mm 7 mps 745 mmHg 63%
18:00 +35°C° 0 mm 7 mps 746 mmHg 68%
19:00 +34°C° 0 mm 7 mps 746 mmHg 74%
20:00 +34°C° 0 mm 7 mps 747 mmHg 75%
21:00 +34°C° 0 mm 7 mps 747 mmHg 75%
22:00 +34°C° 0 mm 6 mps 748 mmHg 76%
23:00 +34°C° 0 mm 6 mps 747 mmHg 76%

Tomorrow, 4 July, Saturday

Time Temperature Precipitation Wind Pressure Humidity
00:00 +34°C° 0 mm 6 mps 747 mmHg 76%
01:00 +33°C° 0 mm 6 mps 747 mmHg 76%
02:00 +33°C° 0 mm 6 mps 746 mmHg 76%
03:00 +33°C° 0 mm 6 mps 746 mmHg 77%
04:00 +33°C° 0 mm 6 mps 746 mmHg 77%
05:00 +33°C° 0 mm 6 mps 746 mmHg 75%
06:00 +34°C° 0 mm 6 mps 746 mmHg 72%
07:00 +34°C° 0 mm 7 mps 746 mmHg 70%
08:00 +35°C° 0 mm 7 mps 746 mmHg 66%
09:00 +38°C° 0 mm 8 mps 746 mmHg 62%
10:00 +39°C° 0 mm 8 mps 746 mmHg 59%
11:00 +39°C° 0 mm 9 mps 745 mmHg 57%
12:00 +39°C° 0 mm 9 mps 745 mmHg 56%
13:00 +39°C° 0 mm 9 mps 745 mmHg 55%
14:00 +39°C° 0 mm 9 mps 744 mmHg 57%
15:00 +38°C° 0 mm 9 mps 744 mmHg 59%
16:00 +38°C° 0 mm 9 mps 744 mmHg 62%
17:00 +37°C° 0 mm 9 mps 744 mmHg 66%
18:00 +35°C° 0 mm 8 mps 744 mmHg 70%
19:00 +34°C° 0 mm 8 mps 745 mmHg 74%
20:00 +34°C° 0 mm 8 mps 745 mmHg 74%
21:00 +34°C° 0 mm 8 mps 746 mmHg 74%
22:00 +34°C° 0 mm 9 mps 746 mmHg 75%
23:00 +34°C° 0.1 mm 9 mps 746 mmHg 74%

Day after tomorrow, 5 July, Sunday

Time Temperature Precipitation Wind Pressure Humidity
00:00 +34°C° 0.1 mm 9 mps 745 mmHg 73%
01:00 +34°C° 0.1 mm 9 mps 745 mmHg 73%
02:00 +33°C° 0 mm 9 mps 744 mmHg 74%
03:00 +33°C° 0 mm 8 mps 744 mmHg 76%
04:00 +33°C° 0 mm 8 mps 744 mmHg 77%
05:00 +34°C° 0 mm 8 mps 744 mmHg 74%
06:00 +34°C° 0 mm 8 mps 744 mmHg 71%
07:00 +35°C° 0 mm 8 mps 744 mmHg 68%
08:00 +35°C° 0 mm 8 mps 744 mmHg 65%
09:00 +37°C° 0 mm 9 mps 744 mmHg 62%
10:00 +38°C° 0 mm 9 mps 744 mmHg 60%
11:00 +38°C° 0 mm 9 mps 743 mmHg 60%
12:00 +38°C° 0 mm 8 mps 743 mmHg 59%
13:00 +38°C° 0 mm 8 mps 742 mmHg 59%
14:00 +38°C° 0 mm 8 mps 742 mmHg 61%
15:00 +37°C° 0 mm 9 mps 742 mmHg 62%
16:00 +37°C° 0 mm 9 mps 742 mmHg 63%
17:00 +37°C° 0 mm 8 mps 742 mmHg 66%
18:00 +35°C° 0 mm 8 mps 743 mmHg 70%
19:00 +34°C° 0 mm 8 mps 743 mmHg 74%
20:00 +34°C° 0 mm 8 mps 743 mmHg 75%
21:00 +34°C° 0 mm 8 mps 744 mmHg 75%
22:00 +33°C° 0 mm 8 mps 744 mmHg 76%
23:00 +33°C° 0 mm 8 mps 743 mmHg 77%

6 July, Monday

Time Temperature Precipitation Wind Pressure Humidity
00:00 +33°C° 0 mm 8 mps 743 mmHg 77%
01:00 +33°C° 0 mm 7 mps 743 mmHg 78%
02:00 +33°C° 0 mm 7 mps 743 mmHg 78%
03:00 +33°C° 0 mm 7 mps 742 mmHg 78%
04:00 +33°C° 0 mm 7 mps 742 mmHg 79%
05:00 +33°C° 0 mm 7 mps 742 mmHg 76%
06:00 +33°C° 0 mm 7 mps 742 mmHg 74%
07:00 +34°C° 0 mm 7 mps 743 mmHg 72%
08:00 +34°C° 0 mm 6 mps 743 mmHg 69%
09:00 +35°C° 0 mm 6 mps 743 mmHg 66%
10:00 +36°C° 0 mm 5 mps 743 mmHg 63%
11:00 +36°C° 0 mm 6 mps 743 mmHg 60%
12:00 +38°C° 0 mm 6 mps 742 mmHg 57%
13:00 +39°C° 0 mm 6 mps 742 mmHg 54%
14:00 +38°C° 0 mm 7 mps 742 mmHg 58%
15:00 +36°C° 0 mm 7 mps 742 mmHg 61%
16:00 +37°C° 0 mm 8 mps 742 mmHg 64%
17:00 +35°C° 0 mm 7 mps 742 mmHg 68%
18:00 +34°C° 0 mm 7 mps 743 mmHg 71%
19:00 +34°C° 0 mm 7 mps 743 mmHg 75%
20:00 +34°C° 0 mm 6 mps 744 mmHg 76%
21:00 +34°C° 0 mm 6 mps 744 mmHg 77%
22:00 +33°C° 0 mm 6 mps 744 mmHg 78%
23:00 +33°C° 0 mm 5 mps 744 mmHg 78%

7 July, Tuesday

Time Temperature Precipitation Wind Pressure Humidity
00:00 +33°C° 0 mm 4 mps 743 mmHg 78%
01:00 +33°C° 0 mm 4 mps 743 mmHg 79%
02:00 +33°C° 0.2 mm 3 mps 743 mmHg 79%
03:00 +33°C° 0.2 mm 3 mps 743 mmHg 78%
04:00 +33°C° 0.2 mm 3 mps 743 mmHg 78%
05:00 +33°C° 1.2 mm 3 mps 744 mmHg 77%
06:00 +33°C° 1.2 mm 3 mps 744 mmHg 77%
07:00 +31°C° 1.2 mm 3 mps 745 mmHg 76%
08:00 +32°C° 0.9 mm 4 mps 745 mmHg 75%
09:00 +32°C° 0.9 mm 4 mps 746 mmHg 74%
10:00 +32°C° 0.9 mm 5 mps 746 mmHg 73%
11:00 +32°C° 0.3 mm 7 mps 746 mmHg 71%
12:00 +32°C° 0.3 mm 9 mps 745 mmHg 69%
13:00 +32°C° 0.3 mm 10 mps 745 mmHg 67%
14:00 +33°C° 0.1 mm 10 mps 745 mmHg 64%
15:00 +33°C° 0.1 mm 10 mps 745 mmHg 60%
16:00 +34°C° 0.1 mm 9 mps 744 mmHg 56%
17:00 +34°C° 1.6 mm 8 mps 745 mmHg 59%
18:00 +33°C° 1.6 mm 7 mps 745 mmHg 61%
19:00 +32°C° 1.6 mm 5 mps 745 mmHg 63%
20:00 +33°C° 2.2 mm 5 mps 745 mmHg 62%
21:00 +33°C° 2.2 mm 5 mps 745 mmHg 60%
22:00 +33°C° 2.2 mm 4 mps 745 mmHg 58%
23:00 +33°C° 2 mm 4 mps 745 mmHg 60%

8 July, Wednesday

Time Temperature Precipitation Wind Pressure Humidity
00:00 +33°C° 2 mm 3 mps 745 mmHg 61%
01:00 +31°C° 2 mm 3 mps 744 mmHg 62%
02:00 +31°C° 1.7 mm 3 mps 744 mmHg 64%
03:00 +31°C° 1.7 mm 2 mps 744 mmHg 66%
04:00 +31°C° 1.7 mm 2 mps 744 mmHg 68%
05:00 +32°C° 0.4 mm 2 mps 745 mmHg 65%
06:00 +33°C° 0.4 mm 3 mps 745 mmHg 63%
07:00 +34°C° 0.4 mm 3 mps 745 mmHg 61%
08:00 +35°C° 0 mm 3 mps 745 mmHg 58%
09:00 +37°C° 0 mm 4 mps 745 mmHg 56%
10:00 +38°C° 0 mm 4 mps 745 mmHg 53%
11:00 +40°C° 0 mm 4 mps 745 mmHg 50%
12:00 +40°C° 0 mm 3 mps 745 mmHg 48%
13:00 +42°C° 0 mm 3 mps 744 mmHg 45%
14:00 +40°C° 0 mm 3 mps 744 mmHg 46%
15:00 +40°C° 0 mm 3 mps 744 mmHg 46%
16:00 +40°C° 0 mm 3 mps 744 mmHg 47%
17:00 +40°C° 0.1 mm 4 mps 744 mmHg 52%
18:00 +37°C° 0.1 mm 4 mps 744 mmHg 57%
19:00 +36°C° 0.1 mm 5 mps 745 mmHg 62%
20:00 +36°C° 0.1 mm 4 mps 745 mmHg 62%
21:00 +36°C° 0.1 mm 3 mps 745 mmHg 61%
22:00 +36°C° 0.1 mm 3 mps 746 mmHg 61%
23:00 +36°C° 0 mm 3 mps 745 mmHg 63%
Show more